Location: Napa Soda Springs
(38.3907°N, 122.2794°W)
Time: 07:17:31
(UTC+00:00)

Cosmos 2082 Rocket - Pass Details

Date: 29 October 2020
Orbit: 833 x 854 km, 71.0° (Epoch: 02 December)

Event Time Altitude Azimuth Distance (km) Brightness Sun altitude
Exits shadow 13:51:30 - 264° (W) 2,498 4.0 -8.7°
Reaches altitude 10° 13:51:44 10° 266° (W) 2,439 4.0 -8.7°
Maximum altitude 13:55:25 18° 307° (NW) 1,959 3.6 -8.0°
Drops below altitude 10° 13:59:07 10° 349° (N) 2,451 4.4 -7.3°
Sets 14:02:25 0° 8° (N) 3,392 5.3 -6.6°
